CZ-3C R/B (49012 NORAD) Tracking and Keplerian Element Data

This shows tracking and keplerian element data for the satellite.

Feedback or suggestion? Click here.




ElementValue
Catalog49012
NameCZ-3C R/B
Epoch Orbit54
Epoch Day210.50612484
Epoch Year2021
RAAN154.2441
Inclination17.6005
Eccentricity0.7505092
Argument of Perigee189.1256
Mean Anonmoly138.8191
Mean Motion2.03664803
Decay Rate0.00022337
L11 49012U 21063B 21210.50612484 .00022337 55970-6 12897-2 0 9992
L22 49012 17.6005 154.2441 7505092 189.1256 138.8191 2.03664803 540

Live tracking and technical data element details for CZ-3C R/B (NORAD 49012). CZ-3C R/B can be tracked NOW for your location showing map with azimuth and elevation plus other details from your city location.

Track the satellite on the map from your city or location and see movement details for azimuth, elevation, latitude, longitude, range, height, and movement on the map or in text.







IsCatalogInMostPopularTable: catalog: 49012, numindb: 1
Update: records affected: 1



GetName: 49012 CZ-3C R/B

Hit Count: updated at: Sat, 31 Jul 2021 15:55:33 GMT